Regional Weather Roundup
Issued by NWS Wakefield, VA

Home | Current Version | Previous Version | Text Only | Print | Product List | Glossary Off
Versions: 1 2 3 4 5 6 7 8 9 10 11 12 13 14 15 16 17 18 19 20 21 22 23 24 25 26 27 28 29 30 31 32 33 34 35 36 37 38 39 40 41 42 43 44 45 46 47 48 49 50

000
ASUS41 KAKQ 201610
RWRAKQ

REGIONAL WEATHER ROUNDUP
NATIONAL WEATHER SERVICE WAKEFIELD VA
1200 PM EDT WED AUG 20 2014

Note: "fair" indicates few or no clouds below 12,000 feet with no
significant weather and/or obstructions to visibility. * = Denotes
station may not report precipitation (e.g., rain,snow,etc.),
thunder or fog.

VAZ042-051-052>054-056-201700-
NORTHERN VIRGINIA

CITY           SKY/WX    TMP DP  RH WIND       PRES   REMARKS
WASH NATIONAL  PTSUNNY   82  64  54 S6        30.00S
DULLES         PTSUNNY   79  67  66 S9        29.99F
FORT BELVOIR   PTSUNNY   79  67  65 S6        30.00F
QUANTICO       MOSUNNY   81  67  62 SW7       30.01S
FREDERICKSBRG* CLOUDY    82  66  57 SE6       29.99F
STAFFORD*      CLOUDY    80  67  63 SE3       30.04F
WARRENTON      PTSUNNY   83  76  79 S7        29.99F
CULPEPER*      MOSUNNY  N/A N/A N/A S5        29.99F
MANASSAS*      NOT AVBL
LEESBURG*      CLOUDY    82  70  65 S14       30.00F
WINCHESTER     PTSUNNY   81  70  69 SE7       29.97F
$$

VAZ048-049-060>072-079>083-201700-
CENTRAL AND SOUTH CENTRAL VIRGINIA...AND NORTH CENTRAL NORTH CAROLINA

CITY           SKY/WX    TMP DP  RH WIND       PRES   REMARKS
RICHMOND       PTSUNNY   83  64  52 CALM      30.00S
CHESTERFIELD*  CLOUDY    82  64  54 CALM      30.02S
HANOVER        MOSUNNY   82  63  52 CALM      30.02S
TAPPAHANNOCK*  SUNNY     82  57  42 E5        30.02R
CHARLOTTSVILLE PTSUNNY   79  70  74 S8        30.00S
ORANGE*        MOSUNNY   81  70  69 E7        30.01F
LOUISA*        PTSUNNY   81  70  69 SE7       29.99F
FARMVILLE*     MOSUNNY   82  70  65 S6        29.98F
SOUTH HILL*    CLOUDY    81  73  78 CALM      30.07S
ROANOKE RAPIDS CLOUDY    79  70  73 CALM      30.01S
RALEIGH        PTSUNNY   83  71  67 CALM      30.02S
$$

VAZ088>098-201700-
SOUTHEAST VIRGINIA

CITY           SKY/WX    TMP DP  RH WIND       PRES   REMARKS
NORFOLK        SUNNY     79  67  66 N8        30.00R
VIRGINIA BEACH MOSUNNY   81  69  67 NE6       29.99R
NORFOLK NAVAL  MOSUNNY   82  68  62 N10       30.01R
WEST POINT*    SUNNY     84  64  50 CALM      30.02S
NEWPORT NEWS   SUNNY     85  66  53 NE5       30.00S
LANGLEY AFB    SUNNY     80  68  67 E6        30.00R
FORT EUSTIS    SUNNY     82  63  51 VRB5      29.98S
WILLIAMSBURG*  SUNNY     86  70  58 CALM      30.00F
FRANKLIN*      PTSUNNY   81  70  69 NE3       29.99S
WAKEFIELD      PTSUNNY   83  68  60 VRB3      30.00S
$$

VAZ020-022-025-037-045-201700-
WESTERN AND SOUTHWEST VIRGINIA

CITY           SKY/WX    TMP DP  RH WIND       PRES   REMARKS
STAUNTON*      CLOUDY    81  67  63 S6        30.03S
HOT SPRINGS VA CLOUDY   N/A N/A N/A W9        30.16R FOG
LYNCHBURG      CLOUDY    77  70  79 SE10      30.02F
DANVILLE       PTSUNNY   81  72  74 S6        30.01F
MARTINSVILLE   MOSUNNY   82  72  71 S3        30.03F
ROANOKE        LGT RAIN  76  68  76 CALM      30.04S
BLACKSBURG     CLOUDY    72  72 100 CALM      30.09R FOG
DUBLIN*        CLOUDY    73  73 100 W5        30.08R
MARION*        MOSUNNY   73  66  77 W10       30.13F
HILLSVILLE*    CLOUDY    69  64  84 SW7       30.11F
RICHLANDS*     MOSUNNY   73  66  80 S5        30.12R
WISE*          SUNNY     75  68  78 SW6       30.13R
ABINGDON*      PTSUNNY   72  70  95 CALM      30.11R
$$

MDZ021>025-VAZ099-100-201700-
SOUTHERN MARYLAND AND THE DELMARVA PENINSULA

CITY           SKY/WX    TMP DP  RH WIND       PRES   REMARKS
PATUXENT RIVER NOT AVBL
BAY BRIDGE APT   N/A     79  57  47 SE5       30.00F
LEONARDTOWN    MOSUNNY   81  63  54 NE6       30.02S
DOVER          MOSUNNY   79  63  57 E5        30.00F
GEORGETOWN     SUNNY     81  62  52 E13       30.01F
EASTON         MOSUNNY   82  61  47 SE3       30.04F
CAMBRIDGE      SUNNY     81  59  47 E6        30.00S
SALISBURY      SUNNY     83  61  47 E6        30.00F
OCEAN CITY     SUNNY     78  68  71 E9        30.01S
WALLOPS ISLAND MOSUNNY   80  66  62 E14       30.01S
ACCOMACK*      SUNNY     79  63  57 E7        30.01R
$$

NCZ012>017-030>032-201700-
EASTERN NORTH CAROLINA

CITY           SKY/WX    TMP DP  RH WIND       PRES   REMARKS
ELIZABETH CITY MOSUNNY   83  72  69 NE6       29.98S
AHOSKIE*       MOSUNNY   79  70  72 CALM      30.00S
EDENTON*       PTSUNNY   81  71  71 N6        29.99R
CURRITUCK*     MOSUNNY   83  68  60 NE8       29.99S
KILL DEVIL HLS SUNNY     81  72  73 N7        29.97S
MANTEO         PTSUNNY   81  72  74 NE10      29.98S
CAPE HATTERAS  LGT RAIN  78  76  93 NE7       29.97R FOG
GOLDSBORO      MOSUNNY   82  76  82 NE3       29.98F
WASHINGTON     MOSUNNY   81  72  74 NW6       30.00R
GREENVILLE     PTSUNNY   81  72  74 NW3       30.02S
NEW BERN       MOSUNNY   86  72  62 CALM      29.99F
WILMINGTON     MOSUNNY   88  74  63 NW5       29.99S HX  96
$$

VAZ048-201700-
ELSEWHERE

CITY           SKY/WX    TMP DP  RH WIND       PRES   REMARKS
HARRISBURG PA  MOSUNNY   80  66  62 SE7       29.98F
BALTIMORE      PTSUNNY   79  64  60 VRB3      30.00S
ANNAPOLIS      MOSUNNY   77  65  66 SE9       30.00F
ANDREWS AFB    MOSUNNY   79  66  64 SE7       30.00F
WILMINGTON DE  PTSUNNY   79  59  50 SW7       30.01F
PHILADELPHIA   PTSUNNY   81  60  48 SE3       30.01S
WILDWOOD NJ*   SUNNY     79  63  57 SE12      30.02S
ATLANTIC CITY  SUNNY     79  63  57 SE8       30.01S
HENDERSON NC   CLOUDY    80  70  73 NW3       30.02F
GREENSBORO     PTSUNNY   82  72  69 CALM      30.02F
ROCKY MOUNT    PTSUNNY   82  71  69 VRB3      30.02R
FAYETTEVILLE   MOSUNNY   87  73  62 CALM      29.99S
CHARLOTTE      MOSUNNY   87  69  54 VRB3      30.03R
$$

VAZ100-201700-
MARINE

STATION/POSITION TIME  TEMP    WIND        PRES    WAVE   SWELL
                       AIR SEA DIR/SP/G            HT/PER HT/PER
                 (UTC) (F)     (DEG/KT/KT) (MB)    (FT/S) (FT/S)
44066 TX TWR #4  1600   72 73   40/ 12/ 14 1015.9R   3/ 6   2/ 6
CAPE MAY NJ      1600   78 79   80/  4/  9 1015.8F
LEWES DE         1600   74 75   70/  8/ 10 1016.2R
15NM E FENWICK I 1600   74 75              1016.1R   3/ 6
OCEAN-CITY-INLET 1600   75 75   90/  7/ 10 1016.0S
WACHAPREAGUE VA  1600   77 77   60/ 10/ 13 1015.8R
THOMAS POINT MD  1600   76 77  160/  5/  6 1016.5F
GOOSES REEF MD   1600   76     170/  2/  2 1016.6F
COVE POINT MD    1600   75     190/  5/  6 1016.1F
SOLOMONS ISLAND  1600      80                N/A
BISHOPS HEAD MD  1600   77 77   80/  3/  5 1015.8S
PINEY POINT MD   1600          170/  7/  9   N/A
POTOMAC MD       1600   76     110/  6/  8 1015.5F
CAMBRIDGE MD     1600   77 78   20/  4/  5 1016.0R
LEWISETTA VA     1600   76 78  110/  7/  9 1015.9S
RAPPAHANNOCK LGT 1600           50/  3/  4 1016.5S
STINGRAY PT      1600   76      60/  6/  6 1016.9S
YORK RVR RNG VA  1600   77      70/  5/  6 1015.5F
YORKTOWN VA      1500   76 79   90/  6/  7 1015.6R
JAMESTOWN VA     1600   77     130/  2/  8   N/A
DOMINION TERM VA 1600   77     110/  8/ 12 1015.9F
KIPTOPEKE VA     1600      82   60/  6/ 10   N/A
CHES BAY BRIDGE  1600   76 79   50/  6/  7 1015.3R
CAPE HENRY VA    1600   76      40/  6/  8 1014.5R
CHESAPEAKE LGHT  1500   75      40/ 10/ 11 1015.9R
WILLOUBY STN VA  1600   76      60/  5/  6 1014.9R
S CRANEY ISL VA  1600          330/  5/  8 1015.5R
CAPE HENRY BUOY  1600      77                N/A     3/ 6
1ST LANDING BUOY 1600   77      50/  6/  8 1015.5R
CAPE CHARLES BUO 1600      78                N/A     3/ 6   2/ 6
OFFSHORE WE BUOY 1600      77                N/A     3/ 5   3/ 5
64NM E OF VA BCH 1600   77 78   50/ 12/ 12 1014.4R   3/ 5   2/ 6
DUCK PIER NC     1600   77 79   30/ 10/ 11 1014.3S
44056 DUCK FRF   1600                        N/A     3/ 4
OREGON INLET NC  1600   79 80   20/ 11/ 11 1015.0F
HATTERAS NC      1600   78 81   30/ 10/ 17 1015.3F
DIAMOND SHLS NC  1500   78     310/  6/  8 1014.3R   2/ 8   2/ 8
CAPE LOOKOUT NC  1500   80     330/  6/ 10 1014.9R
$$



USA.gov is the U.S. government's official web portal to all federal, state and local government web resources and services.